owner,sensor,date,latitude,longitude,air_pressure(mBar),qcFlag 
TABS,ioos:station:wmo:42047:1,2017-10-01T00:00:00Z,27.8966,-93.5973,1014.57,11111222 
TABS,ioos:station:wmo:42047:1,2017-10-01T00:30:00Z,27.8966,-93.5973,1014.63,11111222 
TABS,ioos:station:wmo:42047:1,2017-10-01T01:00:00Z,27.8966,-93.5973,1014.84,11111222 
TABS,ioos:station:wmo:42047:1,2017-10-01T01:30:00Z,27.8966,-93.5973,1015.03,11111222 
TABS,ioos:station:wmo:42047:1,2017-10-01T02:00:00Z,27.8966,-93.5973,1015.32,11111222 
TABS,ioos:station:wmo:42047:1,2017-10-01T02:30:00Z,27.8966,-93.5973,1015.3,11111222 
TABS,ioos:station:wmo:42047:1,2017-10-01T03:00:00Z,27.8966,-93.5973,1015.47,11111222 
TABS,ioos:station:wmo:42047:1,2017-10-01T03:30:00Z,27.8966,-93.5973,1015.46,11111222 
TABS,ioos:station:wmo:42047:1,2017-10-01T04:00:00Z,27.8966,-93.5973,1015.34,11111222 
TABS,ioos:station:wmo:42047:1,2017-10-01T04:30:00Z,27.8966,-93.5973,1015.16,11111222 
TABS,ioos:station:wmo:42047:1,2017-10-01T05:00:00Z,27.8966,-93.5973,1014.91,11111222 
TABS,ioos:station:wmo:42047:1,2017-10-01T05:30:00Z,27.8966,-93.5973,1014.72,11111222 
TABS,ioos:station:wmo:42047:1,2017-10-01T06:00:00Z,27.8966,-93.5973,1014.66,11111222 
TABS,ioos:station:wmo:42047:1,2017-10-01T06:30:00Z,27.8966,-93.5973,1014.47,11111222 
TABS,ioos:station:wmo:42047:1,2017-10-01T07:00:00Z,27.8966,-93.5973,1014.15,11111222 
TABS,ioos:station:wmo:42047:1,2017-10-01T07:30:00Z,27.8966,-93.5973,1014.0,11111222 
TABS,ioos:station:wmo:42047:1,2017-10-01T08:00:00Z,27.8966,-93.5973,1013.54,11111222 
TABS,ioos:station:wmo:42047:1,2017-10-01T08:30:00Z,27.8966,-93.5973,1013.15,11111222 
TABS,ioos:station:wmo:42047:1,2017-10-01T09:00:00Z,27.8966,-93.5973,1012.84,11111222 
TABS,ioos:station:wmo:42047:1,2017-10-01T09:30:00Z,27.8966,-93.5973,1012.8,11111222 
TABS,ioos:station:wmo:42047:1,2017-10-01T10:00:00Z,27.8966,-93.5973,1012.85,11111222 
TABS,ioos:station:wmo:42047:1,2017-10-01T10:30:00Z,27.8966,-93.5973,1012.79,11111222 
TABS,ioos:station:wmo:42047:1,2017-10-01T11:00:00Z,27.8966,-93.5973,1012.91,11111222 
TABS,ioos:station:wmo:42047:1,2017-10-01T11:30:00Z,27.8966,-93.5973,1013.06,11111222 
TABS,ioos:station:wmo:42047:1,2017-10-01T12:00:00Z,27.8966,-93.5973,1013.3,11111222 
TABS,ioos:station:wmo:42047:1,2017-10-01T12:30:00Z,27.8966,-93.5973,1013.59,11111222 
TABS,ioos:station:wmo:42047:1,2017-10-01T13:00:00Z,27.8966,-93.5973,1013.57,11111222 
TABS,ioos:station:wmo:42047:1,2017-10-01T13:30:00Z,27.8966,-93.5973,1013.74,11111222 
TABS,ioos:station:wmo:42047:1,2017-10-01T14:00:00Z,27.8966,-93.5973,1014.11,11111222 
TABS,ioos:station:wmo:42047:1,2017-10-01T14:30:00Z,27.8966,-93.5973,1014.27,11111222 
TABS,ioos:station:wmo:42047:1,2017-10-01T15:00:00Z,27.8966,-93.5973,1014.35,11111222 
TABS,ioos:station:wmo:42047:1,2017-10-01T15:30:00Z,27.8966,-93.5973,1014.43,11111222 
TABS,ioos:station:wmo:42047:1,2017-10-01T16:00:00Z,27.8966,-93.5973,1014.51,11111222 
TABS,ioos:station:wmo:42047:1,2017-10-01T16:30:00Z,27.8966,-93.5973,1014.45,11111222 
TABS,ioos:station:wmo:42047:1,2017-10-01T17:00:00Z,27.8966,-93.5973,1014.22,11111222 
TABS,ioos:station:wmo:42047:1,2017-10-01T17:30:00Z,27.8966,-93.5973,1014.01,11111222 
TABS,ioos:station:wmo:42047:1,2017-10-01T18:00:00Z,27.8966,-93.5973,1013.7,11111222 
TABS,ioos:station:wmo:42047:1,2017-10-01T18:30:00Z,27.8966,-93.5973,1013.36,11111222 
TABS,ioos:station:wmo:42047:1,2017-10-01T19:00:00Z,27.8966,-93.5973,1013.0,11111222 
TABS,ioos:station:wmo:42047:1,2017-10-01T19:30:00Z,27.8966,-93.5973,1012.59,11111222 
TABS,ioos:station:wmo:42047:1,2017-10-01T20:00:00Z,27.8966,-93.5973,1012.44,11111222 
TABS,ioos:station:wmo:42047:1,2017-10-01T20:30:00Z,27.8966,-93.5973,1012.23,11111222 
TABS,ioos:station:wmo:42047:1,2017-10-01T21:00:00Z,27.8966,-93.5973,1012.22,11111222 
TABS,ioos:station:wmo:42047:1,2017-10-01T21:30:00Z,27.8966,-93.5973,1011.95,11111222 
TABS,ioos:station:wmo:42047:1,2017-10-01T22:00:00Z,27.8966,-93.5973,1011.89,11111222 
TABS,ioos:station:wmo:42047:1,2017-10-01T22:30:00Z,27.8966,-93.5973,1011.88,11111222 
TABS,ioos:station:wmo:42047:1,2017-10-01T23:00:00Z,27.8966,-93.5973,1011.86,11111222 
TABS,ioos:station:wmo:42047:1,2017-10-01T23:30:00Z,27.8966,-93.5973,1011.84,11111222 
TABS,ioos:station:wmo:42047:1,2017-10-02T00:00:00Z,27.8966,-93.5973,1011.86,11111222 
TABS,ioos:station:wmo:42047:1,2017-10-02T00:30:00Z,27.8966,-93.5973,1011.93,11111222 
TABS,ioos:station:wmo:42047:1,2017-10-02T01:00:00Z,27.8966,-93.5973,1011.96,11111222 
TABS,ioos:station:wmo:42047:1,2017-10-02T01:30:00Z,27.8966,-93.5973,1012.16,11111222 
TABS,ioos:station:wmo:42047:1,2017-10-02T02:00:00Z,27.8966,-93.5973,1012.35,11111222 
TABS,ioos:station:wmo:42047:1,2017-10-02T02:30:00Z,27.8966,-93.5973,1012.49,11111222 
TABS,ioos:station:wmo:42047:1,2017-10-02T03:00:00Z,27.8966,-93.5973,1012.63,11111222 
TABS,ioos:station:wmo:42047:1,2017-10-02T03:30:00Z,27.8966,-93.5973,1012.76,11111222 
TABS,ioos:station:wmo:42047:1,2017-10-02T04:00:00Z,27.8966,-93.5973,1012.56,11111222 
TABS,ioos:station:wmo:42047:1,2017-10-02T04:30:00Z,27.8966,-93.5973,1012.43,11111222 
TABS,ioos:station:wmo:42047:1,2017-10-02T05:00:00Z,27.8966,-93.5973,1012.28,11111222 
TABS,ioos:station:wmo:42047:1,2017-10-02T05:30:00Z,27.8966,-93.5973,1012.11,11111222 
TABS,ioos:station:wmo:42047:1,2017-10-02T06:00:00Z,27.8966,-93.5973,1012.06,11111222 
TABS,ioos:station:wmo:42047:1,2017-10-02T06:30:00Z,27.8966,-93.5973,1011.98,11111222 
TABS,ioos:station:wmo:42047:1,2017-10-02T07:00:00Z,27.8966,-93.5973,1012.04,11111222 
TABS,ioos:station:wmo:42047:1,2017-10-02T07:30:00Z,27.8966,-93.5973,1011.95,11111222 
TABS,ioos:station:wmo:42047:1,2017-10-02T08:00:00Z,27.8966,-93.5973,1011.81,11111222 
TABS,ioos:station:wmo:42047:1,2017-10-02T08:30:00Z,27.8966,-93.5973,1011.66,11111222 
TABS,ioos:station:wmo:42047:1,2017-10-02T09:00:00Z,27.8966,-93.5973,1011.5,11111222 
TABS,ioos:station:wmo:42047:1,2017-10-02T09:30:00Z,27.8966,-93.5973,1011.39,11111222 
TABS,ioos:station:wmo:42047:1,2017-10-02T10:00:00Z,27.8966,-93.5973,1011.45,11111222 
TABS,ioos:station:wmo:42047:1,2017-10-02T10:30:00Z,27.8966,-93.5973,1011.59,11111222 
TABS,ioos:station:wmo:42047:1,2017-10-02T11:00:00Z,27.8966,-93.5973,1011.73,11111222 
TABS,ioos:station:wmo:42047:1,2017-10-02T11:30:00Z,27.8966,-93.5973,1011.79,11111222 
TABS,ioos:station:wmo:42047:1,2017-10-02T12:00:00Z,27.8966,-93.5973,1011.95,11111222 
TABS,ioos:station:wmo:42047:1,2017-10-02T12:30:00Z,27.8966,-93.5973,1012.17,11111222 
TABS,ioos:station:wmo:42047:1,2017-10-02T13:00:00Z,27.8966,-93.5973,1012.59,11111222 
TABS,ioos:station:wmo:42047:1,2017-10-02T13:30:00Z,27.8966,-93.5973,1012.75,11111222 
TABS,ioos:station:wmo:42047:1,2017-10-02T14:00:00Z,27.8966,-93.5973,1012.75,11111222 
TABS,ioos:station:wmo:42047:1,2017-10-02T14:30:00Z,27.8966,-93.5973,1013.15,11111222 
TABS,ioos:station:wmo:42047:1,2017-10-02T15:00:00Z,27.8966,-93.5973,1013.42,11111222 
TABS,ioos:station:wmo:42047:1,2017-10-02T15:30:00Z,27.8966,-93.5973,1013.35,11111222 
TABS,ioos:station:wmo:42047:1,2017-10-02T16:00:00Z,27.8966,-93.5973,1013.23,11111222 
TABS,ioos:station:wmo:42047:1,2017-10-02T16:30:00Z,27.8966,-93.5973,1013.4,11111222 
TABS,ioos:station:wmo:42047:1,2017-10-02T17:00:00Z,27.8966,-93.5973,1013.13,11111222 
TABS,ioos:station:wmo:42047:1,2017-10-02T17:30:00Z,27.8966,-93.5973,1013.11,11111222 
TABS,ioos:station:wmo:42047:1,2017-10-02T18:00:00Z,27.8966,-93.5973,1012.96,11111222 
TABS,ioos:station:wmo:42047:1,2017-10-02T18:30:00Z,27.8966,-93.5973,1012.74,11111222 
TABS,ioos:station:wmo:42047:1,2017-10-02T19:00:00Z,27.8966,-93.5973,1012.4,11111222 
TABS,ioos:station:wmo:42047:1,2017-10-02T19:30:00Z,27.8966,-93.5973,1012.06,11111222 
TABS,ioos:station:wmo:42047:1,2017-10-02T20:00:00Z,27.8966,-93.5973,1012.39,11111222 
TABS,ioos:station:wmo:42047:1,2017-10-02T20:30:00Z,27.8966,-93.5973,1012.18,11111222 
TABS,ioos:station:wmo:42047:1,2017-10-02T21:00:00Z,27.8966,-93.5973,1012.51,11111222 
TABS,ioos:station:wmo:42047:1,2017-10-02T21:30:00Z,27.8966,-93.5973,1012.42,11111222 
TABS,ioos:station:wmo:42047:1,2017-10-02T22:00:00Z,27.8966,-93.5973,1012.56,11111222 
TABS,ioos:station:wmo:42047:1,2017-10-02T22:30:00Z,27.8966,-93.5973,1012.65,11111222 
TABS,ioos:station:wmo:42047:1,2017-10-02T23:00:00Z,27.8966,-93.5973,1012.72,11111222 
TABS,ioos:station:wmo:42047:1,2017-10-02T23:30:00Z,27.8966,-93.5973,1012.97,11111222 
TABS,ioos:station:wmo:42047:1,2017-10-03T00:00:00Z,27.8966,-93.5973,1013.01,11111222 
TABS,ioos:station:wmo:42047:1,2017-10-03T00:30:00Z,27.8966,-93.5973,1013.34,11111222 
TABS,ioos:station:wmo:42047:1,2017-10-03T01:00:00Z,27.8966,-93.5973,1013.73,11111222 
TABS,ioos:station:wmo:42047:1,2017-10-03T01:30:00Z,27.8966,-93.5973,1014.09,11111222 
TABS,ioos:station:wmo:42047:1,2017-10-03T02:00:00Z,27.8966,-93.5973,1014.28,11111222 
TABS,ioos:station:wmo:42047:1,2017-10-03T02:30:00Z,27.8966,-93.5973,1014.63,11111222 
TABS,ioos:station:wmo:42047:1,2017-10-03T03:00:00Z,27.8966,-93.5973,1014.67,11111222 
TABS,ioos:station:wmo:42047:1,2017-10-03T03:30:00Z,27.8966,-93.5973,1014.51,11111222 
TABS,ioos:station:wmo:42047:1,2017-10-03T04:00:00Z,27.8966,-93.5973,1014.95,11111222 
TABS,ioos:station:wmo:42047:1,2017-10-03T04:30:00Z,27.8966,-93.5973,1015.15,11111222 
TABS,ioos:station:wmo:42047:1,2017-10-03T05:00:00Z,27.8966,-93.5973,1015.22,11111222 
TABS,ioos:station:wmo:42047:1,2017-10-03T05:30:00Z,27.8966,-93.5973,1015.13,11111222 
TABS,ioos:station:wmo:42047:1,2017-10-03T06:00:00Z,27.8966,-93.5973,1014.79,11111222 
TABS,ioos:station:wmo:42047:1,2017-10-03T06:30:00Z,27.8966,-93.5973,1014.75,11111222 
TABS,ioos:station:wmo:42047:1,2017-10-03T07:00:00Z,27.8966,-93.5973,1014.42,11111222 
TABS,ioos:station:wmo:42047:1,2017-10-03T07:30:00Z,27.8966,-93.5973,1014.39,11111222 
TABS,ioos:station:wmo:42047:1,2017-10-03T08:00:00Z,27.8966,-93.5973,1014.1,11111222 
TABS,ioos:station:wmo:42047:1,2017-10-03T08:30:00Z,27.8966,-93.5973,1014.2,11111222 
TABS,ioos:station:wmo:42047:1,2017-10-03T09:00:00Z,27.8966,-93.5973,1014.23,11111222 
TABS,ioos:station:wmo:42047:1,2017-10-03T09:30:00Z,27.8966,-93.5973,1014.34,11111222 
TABS,ioos:station:wmo:42047:1,2017-10-03T10:00:00Z,27.8966,-93.5973,1014.6,11111222 
TABS,ioos:station:wmo:42047:1,2017-10-03T10:30:00Z,27.8966,-93.5973,1014.55,11111222 
TABS,ioos:station:wmo:42047:1,2017-10-03T11:00:00Z,27.8966,-93.5973,1015.22,11111222 
TABS,ioos:station:wmo:42047:1,2017-10-03T11:30:00Z,27.8966,-93.5973,1015.99,11111222 
TABS,ioos:station:wmo:42047:1,2017-10-03T12:00:00Z,27.8966,-93.5973,1016.0,11111222 
TABS,ioos:station:wmo:42047:1,2017-10-03T12:30:00Z,27.8966,-93.5973,1016.36,11111222 
TABS,ioos:station:wmo:42047:1,2017-10-03T13:00:00Z,27.8966,-93.5973,1016.59,11111222 
TABS,ioos:station:wmo:42047:1,2017-10-03T13:30:00Z,27.8966,-93.5973,1016.78,11111222 
TABS,ioos:station:wmo:42047:1,2017-10-03T14:00:00Z,27.8966,-93.5973,1016.8,11111222 
TABS,ioos:station:wmo:42047:1,2017-10-03T14:30:00Z,27.8966,-93.5973,1017.48,11111222 
TABS,ioos:station:wmo:42047:1,2017-10-03T15:00:00Z,27.8966,-93.5973,1018.0,11111222 
TABS,ioos:station:wmo:42047:1,2017-10-03T15:30:00Z,27.8966,-93.5973,1017.97,11111222 
TABS,ioos:station:wmo:42047:1,2017-10-03T16:00:00Z,27.8966,-93.5973,1018.06,11111222 
TABS,ioos:station:wmo:42047:1,2017-10-03T16:30:00Z,27.8966,-93.5973,1018.2,11111222 
TABS,ioos:station:wmo:42047:1,2017-10-03T17:00:00Z,27.8966,-93.5973,1018.26,11111222 
TABS,ioos:station:wmo:42047:1,2017-10-03T17:30:00Z,27.8966,-93.5973,1018.19,11111222 
TABS,ioos:station:wmo:42047:1,2017-10-03T18:00:00Z,27.8966,-93.5973,1017.82,11111222 
TABS,ioos:station:wmo:42047:1,2017-10-03T18:30:00Z,27.8966,-93.5973,1017.65,11111222 
TABS,ioos:station:wmo:42047:1,2017-10-03T19:00:00Z,27.8966,-93.5973,1017.56,11111222 
TABS,ioos:station:wmo:42047:1,2017-10-03T19:30:00Z,27.8966,-93.5973,1017.27,11111222 
TABS,ioos:station:wmo:42047:1,2017-10-03T20:00:00Z,27.8966,-93.5973,1017.6,11111222 
TABS,ioos:station:wmo:42047:1,2017-10-03T20:30:00Z,27.8966,-93.5973,1017.0,11111222 
TABS,ioos:station:wmo:42047:1,2017-10-03T21:00:00Z,27.8966,-93.5973,1017.07,11111222 
TABS,ioos:station:wmo:42047:1,2017-10-03T21:30:00Z,27.8966,-93.5973,1017.13,11111222 
TABS,ioos:station:wmo:42047:1,2017-10-03T22:00:00Z,27.8966,-93.5973,1017.13,11111222 
TABS,ioos:station:wmo:42047:1,2017-10-03T22:30:00Z,27.8966,-93.5973,1017.34,11111222 
TABS,ioos:station:wmo:42047:1,2017-10-03T23:00:00Z,27.8966,-93.5973,1017.77,11111222 
TABS,ioos:station:wmo:42047:1,2017-10-03T23:30:00Z,27.8966,-93.5973,1018.06,11111222 
TABS,ioos:station:wmo:42047:1,2017-10-04T00:00:00Z,27.8966,-93.5973,1018.59,11111222 
TABS,ioos:station:wmo:42047:1,2017-10-04T00:30:00Z,27.8966,-93.5973,1018.56,11111222 
TABS,ioos:station:wmo:42047:1,2017-10-04T01:00:00Z,27.8966,-93.5973,1018.64,11111222 
TABS,ioos:station:wmo:42047:1,2017-10-04T01:30:00Z,27.8966,-93.5973,1018.69,11111222 
TABS,ioos:station:wmo:42047:1,2017-10-04T02:00:00Z,27.8966,-93.5973,1019.56,11111222 
TABS,ioos:station:wmo:42047:1,2017-10-04T02:30:00Z,27.8966,-93.5973,1019.65,11111222 
TABS,ioos:station:wmo:42047:1,2017-10-04T03:00:00Z,27.8966,-93.5973,1019.82,11111222 
TABS,ioos:station:wmo:42047:1,2017-10-04T03:30:00Z,27.8966,-93.5973,1020.03,11111222 
TABS,ioos:station:wmo:42047:1,2017-10-04T04:00:00Z,27.8966,-93.5973,1020.02,11111222 
TABS,ioos:station:wmo:42047:1,2017-10-04T04:30:00Z,27.8966,-93.5973,1020.05,11111222 
TABS,ioos:station:wmo:42047:1,2017-10-04T05:00:00Z,27.8966,-93.5973,1020.18,11111222 
TABS,ioos:station:wmo:42047:1,2017-10-04T05:30:00Z,27.8966,-93.5973,1019.65,11111222 
TABS,ioos:station:wmo:42047:1,2017-10-04T06:00:00Z,27.8966,-93.5973,1019.45,11111222 
TABS,ioos:station:wmo:42047:1,2017-10-04T06:30:00Z,27.8966,-93.5973,1019.27,11111222 
TABS,ioos:station:wmo:42047:1,2017-10-04T07:00:00Z,27.8966,-93.5973,1019.1,11111222 
TABS,ioos:station:wmo:42047:1,2017-10-04T07:30:00Z,27.8966,-93.5973,1019.2,11111222 
TABS,ioos:station:wmo:42047:1,2017-10-04T08:00:00Z,27.8966,-93.5973,1018.84,11111222 
TABS,ioos:station:wmo:42047:1,2017-10-04T08:30:00Z,27.8966,-93.5973,1018.65,11111222 
TABS,ioos:station:wmo:42047:1,2017-10-04T09:00:00Z,27.8966,-93.5973,1018.59,11111222 
TABS,ioos:station:wmo:42047:1,2017-10-04T09:30:00Z,27.8966,-93.5973,1018.74,11111222 
TABS,ioos:station:wmo:42047:1,2017-10-04T10:00:00Z,27.8966,-93.5973,1018.71,11111222 
TABS,ioos:station:wmo:42047:1,2017-10-04T10:30:00Z,27.8966,-93.5973,1018.59,11111222 
TABS,ioos:station:wmo:42047:1,2017-10-04T11:00:00Z,27.8966,-93.5973,1018.89,11111222 
TABS,ioos:station:wmo:42047:1,2017-10-04T11:30:00Z,27.8966,-93.5973,1019.2,11111222 
TABS,ioos:station:wmo:42047:1,2017-10-04T12:00:00Z,27.8966,-93.5973,1019.52,11111222 
TABS,ioos:station:wmo:42047:1,2017-10-04T12:30:00Z,27.8966,-93.5973,1019.33,11111222 
TABS,ioos:station:wmo:42047:1,2017-10-04T13:00:00Z,27.8966,-93.5973,1019.42,11111222 
TABS,ioos:station:wmo:42047:1,2017-10-04T13:30:00Z,27.8966,-93.5973,1019.65,11111222 
TABS,ioos:station:wmo:42047:1,2017-10-04T14:00:00Z,27.8966,-93.5973,1019.82,11111222 
TABS,ioos:station:wmo:42047:1,2017-10-04T14:30:00Z,27.8966,-93.5973,1020.07,11111222 
TABS,ioos:station:wmo:42047:1,2017-10-04T15:00:00Z,27.8966,-93.5973,1020.46,11111222 
TABS,ioos:station:wmo:42047:1,2017-10-04T15:30:00Z,27.8966,-93.5973,1020.34,11111222 
TABS,ioos:station:wmo:42047:1,2017-10-04T16:00:00Z,27.8966,-93.5973,1020.5,11111222 
TABS,ioos:station:wmo:42047:1,2017-10-04T16:30:00Z,27.8966,-93.5973,1020.19,11111222 
TABS,ioos:station:wmo:42047:1,2017-10-04T17:00:00Z,27.8966,-93.5973,1020.2,11111222 
TABS,ioos:station:wmo:42047:1,2017-10-04T17:30:00Z,27.8966,-93.5973,1019.86,11111222 
TABS,ioos:station:wmo:42047:1,2017-10-04T18:00:00Z,27.8966,-93.5973,1019.48,11111222 
TABS,ioos:station:wmo:42047:1,2017-10-04T18:30:00Z,27.8966,-93.5973,1019.17,11111222 
TABS,ioos:station:wmo:42047:1,2017-10-04T19:00:00Z,27.8966,-93.5973,1018.61,11111222 
TABS,ioos:station:wmo:42047:1,2017-10-04T19:30:00Z,27.8966,-93.5973,1018.42,11111222 
TABS,ioos:station:wmo:42047:1,2017-10-04T20:00:00Z,27.8966,-93.5973,1018.24,11111222 
TABS,ioos:station:wmo:42047:1,2017-10-04T20:30:00Z,27.8966,-93.5973,1018.04,11111222 
TABS,ioos:station:wmo:42047:1,2017-10-04T21:00:00Z,27.8966,-93.5973,1017.51,11111222 
TABS,ioos:station:wmo:42047:1,2017-10-04T21:30:00Z,27.8966,-93.5973,1017.77,11111222 
TABS,ioos:station:wmo:42047:1,2017-10-04T22:00:00Z,27.8966,-93.5973,1017.8,11111222 
TABS,ioos:station:wmo:42047:1,2017-10-04T22:30:00Z,27.8966,-93.5973,1017.95,11111222 
TABS,ioos:station:wmo:42047:1,2017-10-04T23:00:00Z,27.8966,-93.5973,1018.21,11111222 
TABS,ioos:station:wmo:42047:1,2017-10-04T23:30:00Z,27.8966,-93.5973,1018.18,11111222 
TABS,ioos:station:wmo:42047:1,2017-10-05T00:00:00Z,27.8966,-93.5973,1018.39,11111222 
TABS,ioos:station:wmo:42047:1,2017-10-05T00:30:00Z,27.8966,-93.5973,1018.55,11111222 
TABS,ioos:station:wmo:42047:1,2017-10-05T01:00:00Z,27.8966,-93.5973,1018.63,11111222 
TABS,ioos:station:wmo:42047:1,2017-10-05T01:30:00Z,27.8966,-93.5973,1018.81,11111222 
TABS,ioos:station:wmo:42047:1,2017-10-05T02:00:00Z,27.8966,-93.5973,1019.08,11111222 
TABS,ioos:station:wmo:42047:1,2017-10-05T02:30:00Z,27.8966,-93.5973,1018.86,11111222 
TABS,ioos:station:wmo:42047:1,2017-10-05T03:00:00Z,27.8966,-93.5973,1019.27,11111222 
TABS,ioos:station:wmo:42047:1,2017-10-05T03:30:00Z,27.8966,-93.5973,1019.37,11111222 
TABS,ioos:station:wmo:42047:1,2017-10-05T04:00:00Z,27.8966,-93.5973,1019.11,11111222 
TABS,ioos:station:wmo:42047:1,2017-10-05T04:30:00Z,27.8966,-93.5973,1019.25,11111222 
TABS,ioos:station:wmo:42047:1,2017-10-05T05:00:00Z,27.8966,-93.5973,1019.08,11111222 
TABS,ioos:station:wmo:42047:1,2017-10-05T05:30:00Z,27.8966,-93.5973,1018.8,11111222 
TABS,ioos:station:wmo:42047:1,2017-10-05T06:00:00Z,27.8966,-93.5973,1018.58,11111222 
TABS,ioos:station:wmo:42047:1,2017-10-05T06:30:00Z,27.8966,-93.5973,1018.46,11111222 
TABS,ioos:station:wmo:42047:1,2017-10-05T07:00:00Z,27.8966,-93.5973,1018.29,11111222 
TABS,ioos:station:wmo:42047:1,2017-10-05T07:30:00Z,27.8966,-93.5973,1017.97,11111222 
TABS,ioos:station:wmo:42047:1,2017-10-05T08:00:00Z,27.8966,-93.5973,1017.72,11111222 
TABS,ioos:station:wmo:42047:1,2017-10-05T08:30:00Z,27.8966,-93.5973,1017.91,11111222 
TABS,ioos:station:wmo:42047:1,2017-10-05T09:00:00Z,27.8966,-93.5973,1017.55,11111222 
TABS,ioos:station:wmo:42047:1,2017-10-05T09:30:00Z,27.8966,-93.5973,1017.44,11111222 
TABS,ioos:station:wmo:42047:1,2017-10-05T10:00:00Z,27.8966,-93.5973,1017.52,11111222 
TABS,ioos:station:wmo:42047:1,2017-10-05T10:30:00Z,27.8966,-93.5973,1017.47,11111222 
TABS,ioos:station:wmo:42047:1,2017-10-05T11:00:00Z,27.8966,-93.5973,1017.4,11111222 
TABS,ioos:station:wmo:42047:1,2017-10-05T11:30:00Z,27.8966,-93.5973,1017.26,11111222 
TABS,ioos:station:wmo:42047:1,2017-10-05T12:00:00Z,27.8966,-93.5973,1017.46,11111222 
TABS,ioos:station:wmo:42047:1,2017-10-05T12:30:00Z,27.8966,-93.5973,1017.67,11111222 
TABS,ioos:station:wmo:42047:1,2017-10-05T13:00:00Z,27.8966,-93.5973,1017.87,11111222 
TABS,ioos:station:wmo:42047:1,2017-10-05T13:30:00Z,27.8966,-93.5973,1017.77,11111222 
TABS,ioos:station:wmo:42047:1,2017-10-05T14:00:00Z,27.8966,-93.5973,1017.86,11111222 
TABS,ioos:station:wmo:42047:1,2017-10-05T14:30:00Z,27.8966,-93.5973,1017.93,11111222 
TABS,ioos:station:wmo:42047:1,2017-10-05T15:00:00Z,27.8966,-93.5973,1017.89,11111222 
TABS,ioos:station:wmo:42047:1,2017-10-05T15:30:00Z,27.8966,-93.5973,1017.93,11111222 
TABS,ioos:station:wmo:42047:1,2017-10-05T16:00:00Z,27.8966,-93.5973,1017.77,11111222 
TABS,ioos:station:wmo:42047:1,2017-10-05T16:30:00Z,27.8966,-93.5973,1017.63,11111222 
TABS,ioos:station:wmo:42047:1,2017-10-05T17:00:00Z,27.8966,-93.5973,1017.12,11111222 
TABS,ioos:station:wmo:42047:1,2017-10-05T17:30:00Z,27.8966,-93.5973,1016.88,11111222 
TABS,ioos:station:wmo:42047:1,2017-10-05T18:00:00Z,27.8966,-93.5973,1016.62,11111222 
TABS,ioos:station:wmo:42047:1,2017-10-05T18:30:00Z,27.8966,-93.5973,1016.26,11111222 
TABS,ioos:station:wmo:42047:1,2017-10-05T19:00:00Z,27.8966,-93.5973,1015.86,11111222 
TABS,ioos:station:wmo:42047:1,2017-10-05T19:30:00Z,27.8966,-93.5973,1015.47,11111222 
TABS,ioos:station:wmo:42047:1,2017-10-05T20:00:00Z,27.8966,-93.5973,1015.22,11111222 
TABS,ioos:station:wmo:42047:1,2017-10-05T20:30:00Z,27.8966,-93.5973,1014.93,11111222 
TABS,ioos:station:wmo:42047:1,2017-10-05T21:00:00Z,27.8966,-93.5973,1014.78,11111222 
TABS,ioos:station:wmo:42047:1,2017-10-05T21:30:00Z,27.8966,-93.5973,1014.79,11111222 
TABS,ioos:station:wmo:42047:1,2017-10-05T22:00:00Z,27.8966,-93.5973,1014.97,11111222 
TABS,ioos:station:wmo:42047:1,2017-10-05T22:30:00Z,27.8966,-93.5973,1014.6,11111222 
TABS,ioos:station:wmo:42047:1,2017-10-05T23:00:00Z,27.8966,-93.5973,1014.43,11111222 
TABS,ioos:station:wmo:42047:1,2017-10-05T23:30:00Z,27.8966,-93.5973,1014.65,11111222 
TABS,ioos:station:wmo:42047:1,2017-10-06T00:00:00Z,27.8966,-93.5973,1014.84,11111222 
TABS,ioos:station:wmo:42047:1,2017-10-06T00:30:00Z,27.8966,-93.5973,1014.84,11111222 
TABS,ioos:station:wmo:42047:1,2017-10-06T01:00:00Z,27.8966,-93.5973,1014.99,11111222 
TABS,ioos:station:wmo:42047:1,2017-10-06T01:30:00Z,27.8966,-93.5973,1015.32,11111222 
TABS,ioos:station:wmo:42047:1,2017-10-06T02:00:00Z,27.8966,-93.5973,1015.61,11111222 
TABS,ioos:station:wmo:42047:1,2017-10-06T02:30:00Z,27.8966,-93.5973,1015.95,11111222 
TABS,ioos:station:wmo:42047:1,2017-10-06T03:00:00Z,27.8966,-93.5973,1016.13,11111222 
TABS,ioos:station:wmo:42047:1,2017-10-06T03:30:00Z,27.8966,-93.5973,1015.99,11111222 
TABS,ioos:station:wmo:42047:1,2017-10-06T04:00:00Z,27.8966,-93.5973,1015.86,11111222 
TABS,ioos:station:wmo:42047:1,2017-10-06T04:30:00Z,27.8966,-93.5973,1015.82,11111222 
TABS,ioos:station:wmo:42047:1,2017-10-06T05:00:00Z,27.8966,-93.5973,1015.53,11111222 
TABS,ioos:station:wmo:42047:1,2017-10-06T05:30:00Z,27.8966,-93.5973,1015.44,11111222 
TABS,ioos:station:wmo:42047:1,2017-10-06T06:00:00Z,27.8966,-93.5973,1015.37,11111222 
TABS,ioos:station:wmo:42047:1,2017-10-06T06:30:00Z,27.8966,-93.5973,1015.09,11111222 
TABS,ioos:station:wmo:42047:1,2017-10-06T07:00:00Z,27.8966,-93.5973,1014.84,11111222 
TABS,ioos:station:wmo:42047:1,2017-10-06T07:30:00Z,27.8966,-93.5973,1014.37,11111222 
TABS,ioos:station:wmo:42047:1,2017-10-06T08:00:00Z,27.8966,-93.5973,1014.15,11111222 
TABS,ioos:station:wmo:42047:1,2017-10-06T08:30:00Z,27.8966,-93.5973,1013.83,11111222 
TABS,ioos:station:wmo:42047:1,2017-10-06T09:00:00Z,27.8966,-93.5973,1013.8,11111222 
TABS,ioos:station:wmo:42047:1,2017-10-06T09:30:00Z,27.8966,-93.5973,1013.7,11111222 
TABS,ioos:station:wmo:42047:1,2017-10-06T10:00:00Z,27.8966,-93.5973,1013.71,11111222 
TABS,ioos:station:wmo:42047:1,2017-10-06T10:30:00Z,27.8966,-93.5973,1013.67,11111222 
TABS,ioos:station:wmo:42047:1,2017-10-06T11:00:00Z,27.8966,-93.5973,1013.67,11111222 
TABS,ioos:station:wmo:42047:1,2017-10-06T11:30:00Z,27.8966,-93.5973,1013.75,11111222 
TABS,ioos:station:wmo:42047:1,2017-10-06T12:00:00Z,27.8966,-93.5973,1013.66,11111222 
TABS,ioos:station:wmo:42047:1,2017-10-06T12:30:00Z,27.8966,-93.5973,1013.77,11111222 
TABS,ioos:station:wmo:42047:1,2017-10-06T13:00:00Z,27.8966,-93.5973,1013.47,11111222 
TABS,ioos:station:wmo:42047:1,2017-10-06T13:30:00Z,27.8966,-93.5973,1013.61,11111222 
TABS,ioos:station:wmo:42047:1,2017-10-06T14:00:00Z,27.8966,-93.5973,1013.67,11111222 
TABS,ioos:station:wmo:42047:1,2017-10-06T14:30:00Z,27.8966,-93.5973,1014.01,11111222 
TABS,ioos:station:wmo:42047:1,2017-10-06T15:00:00Z,27.8966,-93.5973,1013.87,11111222 
TABS,ioos:station:wmo:42047:1,2017-10-06T15:30:00Z,27.8966,-93.5973,1013.93,11111222 
TABS,ioos:station:wmo:42047:1,2017-10-06T16:00:00Z,27.8966,-93.5973,1013.96,11111222 
TABS,ioos:station:wmo:42047:1,2017-10-06T16:30:00Z,27.8966,-93.5973,1013.95,11111222 
TABS,ioos:station:wmo:42047:1,2017-10-06T17:00:00Z,27.8966,-93.5973,1013.65,11111222 
TABS,ioos:station:wmo:42047:1,2017-10-06T17:30:00Z,27.8966,-93.5973,1012.97,11111222 
TABS,ioos:station:wmo:42047:1,2017-10-06T18:00:00Z,27.8966,-93.5973,1012.14,11111222 
TABS,ioos:station:wmo:42047:1,2017-10-06T18:30:00Z,27.8966,-93.5973,1011.92,11111222 